Location: Staunton
(38.1490°N, 79.0720°W)
Time: 05:22:00
(UTC-05:00)

ISS - Pass Details

Date: 12 January 2019
Orbit: 404 x 407 km, 51.6° (Epoch: 16 January)

Event Time Altitude Azimuth Distance (km) Brightness Sun altitude
Exits shadow 05:14:50 23° 75° (ENE) 921 -1.4 -26.5°
Drops below altitude 10° 05:16:30 10° 97° (E) 1,462 0.0 -26.2°
Sets 05:18:42 0° 108° (ESE) 2,319 1.3 -25.8°
